Time,TemperatureF,DewpointF,PressureIn,WindDirection,WindDirectionDegrees,WindSpeedMPH,WindSpeedGustMPH,Humidity,HourlyPrecipIn,Conditions,Clouds,dailyrainin,SoftwareType,DateUTC
2013-04-09 00:02:00,47.2,43.8,30.20,NNE,23,1.3,2.0,88,0.00,,,0.00,WUHU216HW,2013-04-09 07:02:00,
2013-04-09 00:07:00,47.0,44.0,30.20,ENE,68,0.4,1.8,89,0.00,,,0.00,WUHU216HW,2013-04-09 07:07:00,
2013-04-09 00:12:00,47.0,44.0,30.21,NNE,23,1.8,2.0,89,0.00,,,0.00,WUHU216HW,2013-04-09 07:12:00,
2013-04-09 00:17:00,47.0,44.0,30.21,East,90,1.1,2.2,89,0.00,,,0.00,WUHU216HW,2013-04-09 07:17:00,
2013-04-09 00:22:00,47.0,44.0,30.21,East,90,0.7,2.2,89,0.00,,,0.00,WUHU216HW,2013-04-09 07:22:00,
2013-04-09 00:28:00,47.0,44.0,30.21,NE,45,0.0,1.6,89,0.00,,,0.00,WUHU216HW,2013-04-09 07:28:00,
2013-04-09 00:33:00,46.8,43.8,30.21,SSW,203,0.9,1.8,89,0.00,,,0.00,WUHU216HW,2013-04-09 07:33:00,
2013-04-09 00:38:00,46.8,43.8,30.21,East,90,1.1,1.8,89,0.00,,,0.00,WUHU216HW,2013-04-09 07:38:00,
2013-04-09 00:43:00,46.8,43.8,30.21,East,90,0.7,1.8,89,0.00,,,0.00,WUHU216HW,2013-04-09 07:43:00,
2013-04-09 00:48:00,47.0,44.0,30.22,SSE,158,0.9,1.6,89,0.00,,,0.00,WUHU216HW,2013-04-09 07:48:00,
2013-04-09 00:53:00,47.0,44.0,30.21,SSW,203,0.0,1.3,89,0.00,,,0.00,WUHU216HW,2013-04-09 07:53:00,
2013-04-09 00:58:00,46.8,43.8,30.21,North,0,0.0,1.3,89,0.00,,,0.00,WUHU216HW,2013-04-09 07:58:00,
2013-04-09 01:03:00,46.6,43.7,30.21,North,0,0.4,1.1,89,0.00,,,0.00,WUHU216HW,2013-04-09 08:03:00,
2013-04-09 01:08:00,46.4,43.5,30.21,North,0,0.0,0.9,89,0.00,,,0.00,WUHU216HW,2013-04-09 08:08:00,
2013-04-09 01:13:00,46.4,43.5,30.22,South,180,2.5,2.9,89,0.00,,,0.00,WUHU216HW,2013-04-09 08:13:00,
2013-04-09 01:18:00,46.4,43.5,30.22,SSE,158,1.6,2.9,89,0.00,,,0.00,WUHU216HW,2013-04-09 08:18:00,
2013-04-09 01:23:00,46.6,43.7,30.22,SSW,203,2.7,2.7,89,0.00,,,0.00,WUHU216HW,2013-04-09 08:23:00,
2013-04-09 01:28:00,46.8,43.5,30.22,South,180,2.2,2.7,88,0.00,,,0.00,WUHU216HW,2013-04-09 08:28:00,
2013-04-09 01:33:00,46.8,43.5,30.22,South,180,1.1,2.5,88,0.00,,,0.00,WUHU216HW,2013-04-09 08:33:00,
2013-04-09 01:38:00,46.8,43.5,30.22,SSE,158,0.0,2.2,88,0.00,,,0.00,WUHU216HW,2013-04-09 08:38:00,
2013-04-09 01:43:00,46.4,43.1,30.22,ESE,113,2.0,2.0,88,0.00,,,0.00,WUHU216HW,2013-04-09 08:43:00,
2013-04-09 01:48:00,46.4,43.1,30.22,SE,135,1.3,2.5,88,0.00,,,0.00,WUHU216HW,2013-04-09 08:48:00,
2013-04-09 01:53:00,46.4,43.5,30.23,South,180,2.5,2.7,89,0.00,,,0.00,WUHU216HW,2013-04-09 08:53:00,
2013-04-09 01:58:00,46.6,43.7,30.23,SSW,203,2.5,2.9,89,0.00,,,0.00,WUHU216HW,2013-04-09 08:58:00,
2013-04-09 02:03:00,46.8,44.1,30.22,SW,225,4.3,5.8,90,0.00,,,0.00,WUHU216HW,2013-04-09 09:03:00,
2013-04-09 02:08:00,47.0,44.0,30.23,SE,135,2.2,5.8,89,0.00,,,0.00,WUHU216HW,2013-04-09 09:08:00,
2013-04-09 02:13:00,47.0,44.0,30.23,SSE,158,1.8,5.4,89,0.00,,,0.00,WUHU216HW,2013-04-09 09:13:00,
2013-04-09 02:18:00,47.0,44.0,30.23,SSE,158,2.5,2.7,89,0.00,,,0.00,WUHU216HW,2013-04-09 09:18:00,
2013-04-09 02:23:00,47.0,43.7,30.22,SSE,158,1.8,2.7,88,0.00,,,0.00,WUHU216HW,2013-04-09 09:23:00,
2013-04-09 02:28:00,47.0,43.7,30.22,SE,135,1.8,2.5,88,0.00,,,0.00,WUHU216HW,2013-04-09 09:28:00,
2013-04-09 02:33:00,47.2,43.8,30.22,SE,135,1.6,2.5,88,0.00,,,0.00,WUHU216HW,2013-04-09 09:33:00,
2013-04-09 02:38:00,47.2,43.8,30.22,ESE,113,1.8,2.9,88,0.00,,,0.00,WUHU216HW,2013-04-09 09:38:00,
2013-04-09 02:43:00,47.2,43.8,30.22,ESE,113,2.5,3.1,88,0.00,,,0.00,WUHU216HW,2013-04-09 09:43:00,
2013-04-09 02:48:00,47.0,43.7,30.22,SE,135,2.5,3.1,88,0.00,,,0.00,WUHU216HW,2013-04-09 09:48:00,
2013-04-09 02:53:00,47.0,43.7,30.22,SE,135,3.1,3.1,88,0.00,,,0.00,WUHU216HW,2013-04-09 09:53:00,
2013-04-09 02:58:00,47.0,43.7,30.22,SE,135,1.3,3.1,88,0.00,,,0.00,WUHU216HW,2013-04-09 09:58:00,
2013-04-09 03:03:00,46.8,43.8,30.22,SSW,203,2.5,3.1,89,0.00,,,0.00,WUHU216HW,2013-04-09 10:03:00,
2013-04-09 03:08:00,46.8,43.8,30.22,SSW,203,2.2,3.4,89,0.00,,,0.00,WUHU216HW,2013-04-09 10:08:00,
2013-04-09 03:13:00,47.0,44.0,30.23,South,180,2.5,3.4,89,0.00,,,0.00,WUHU216HW,2013-04-09 10:13:00,
2013-04-09 03:18:00,47.0,44.0,30.23,SE,135,1.1,2.5,89,0.00,,,0.00,WUHU216HW,2013-04-09 10:18:00,
2013-04-09 03:23:00,47.0,44.0,30.23,NE,45,2.2,2.2,89,0.00,,,0.00,WUHU216HW,2013-04-09 10:23:00,
2013-04-09 03:28:00,47.0,44.0,30.23,SSE,158,2.9,4.3,89,0.00,,,0.00,WUHU216HW,2013-04-09 10:28:00,
2013-04-09 03:33:00,46.8,44.1,30.23,SSE,158,2.2,4.3,90,0.00,,,0.00,WUHU216HW,2013-04-09 10:33:00,
2013-04-09 03:38:00,46.8,44.1,30.23,SE,135,2.5,3.4,90,0.00,,,0.00,WUHU216HW,2013-04-09 10:38:00,
2013-04-09 03:43:00,46.8,44.1,30.23,SSE,158,2.5,3.4,90,0.00,,,0.00,WUHU216HW,2013-04-09 10:43:00,
2013-04-09 03:48:00,46.8,44.1,30.23,SE,135,2.2,3.4,90,0.00,,,0.00,WUHU216HW,2013-04-09 10:48:00,
2013-04-09 03:53:00,46.8,44.1,30.24,SSE,158,1.8,2.9,90,0.00,,,0.00,WUHU216HW,2013-04-09 10:53:00,
2013-04-09 03:58:00,46.8,43.8,30.24,SSE,158,2.2,2.9,89,0.00,,,0.00,WUHU216HW,2013-04-09 10:58:00,
2013-04-09 04:03:00,46.8,43.8,30.24,SSE,158,2.7,3.4,89,0.00,,,0.00,WUHU216HW,2013-04-09 11:03:00,
2013-04-09 04:08:00,46.8,43.5,30.24,SSE,158,3.4,3.4,88,0.00,,,0.00,WUHU216HW,2013-04-09 11:08:00,
2013-04-09 04:13:00,46.8,43.5,30.25,SE,135,2.5,3.4,88,0.00,,,0.00,WUHU216HW,2013-04-09 11:13:00,
2013-04-09 04:18:00,46.8,43.5,30.25,SE,135,2.5,3.4,88,0.00,,,0.00,WUHU216HW,2013-04-09 11:18:00,
2013-04-09 04:23:00,46.8,43.5,30.25,SSE,158,2.7,3.8,88,0.00,,,0.00,WUHU216HW,2013-04-09 11:23:00,
2013-04-09 04:28:00,46.8,43.8,30.25,SSE,158,3.1,3.8,89,0.00,,,0.00,WUHU216HW,2013-04-09 11:28:00,
2013-04-09 04:33:00,46.8,43.5,30.24,SSE,158,3.1,3.8,88,0.00,,,0.00,WUHU216HW,2013-04-09 11:33:00,
2013-04-09 04:38:00,46.8,43.8,30.25,South,180,3.8,4.0,89,0.00,,,0.00,WUHU216HW,2013-04-09 11:38:00,
2013-04-09 04:43:00,46.8,43.5,30.25,SSE,158,3.4,4.0,88,0.00,,,0.00,WUHU216HW,2013-04-09 11:43:00,
2013-04-09 04:48:00,46.8,43.5,30.25,SSE,158,3.6,4.0,88,0.00,,,0.00,WUHU216HW,2013-04-09 11:48:00,
2013-04-09 04:53:00,46.8,43.5,30.24,South,180,3.4,4.3,88,0.00,,,0.00,WUHU216HW,2013-04-09 11:53:00,
2013-04-09 04:58:00,46.8,43.5,30.25,South,180,3.8,4.3,88,0.00,,,0.00,WUHU216HW,2013-04-09 11:58:00,
2013-04-09 05:03:00,46.8,43.8,30.24,SSE,158,3.8,4.0,89,0.00,,,0.00,WUHU216HW,2013-04-09 12:03:00,
2013-04-09 05:08:00,46.8,43.8,30.24,SSE,158,3.4,4.5,89,0.00,,,0.00,WUHU216HW,2013-04-09 12:08:00,
2013-04-09 05:13:00,46.8,43.8,30.24,SSE,158,3.4,4.5,89,0.00,,,0.00,WUHU216HW,2013-04-09 12:13:00,
2013-04-09 05:18:00,46.6,43.7,30.24,SSE,158,4.0,4.0,89,0.00,,,0.00,WUHU216HW,2013-04-09 12:18:00,
2013-04-09 05:23:00,46.6,43.7,30.25,SSE,158,4.0,4.5,89,0.00,,,0.00,WUHU216HW,2013-04-09 12:23:00,
2013-04-09 05:29:00,46.6,43.3,30.24,SSE,158,4.0,4.7,88,0.00,,,0.00,WUHU216HW,2013-04-09 12:29:00,
2013-04-09 05:34:00,46.4,43.1,30.24,SSE,158,3.4,4.7,88,0.00,,,0.00,WUHU216HW,2013-04-09 12:34:00,
2013-04-09 05:39:00,46.4,43.1,30.24,SSE,158,4.3,4.7,88,0.00,,,0.00,WUHU216HW,2013-04-09 12:39:00,
2013-04-09 05:44:00,46.4,43.1,30.24,South,180,4.0,4.7,88,0.00,,,0.00,WUHU216HW,2013-04-09 12:44:00,
2013-04-09 05:50:00,46.4,43.1,30.24,SSE,158,3.8,4.7,88,0.00,,,0.00,WUHU216HW,2013-04-09 12:50:00,
2013-04-09 05:56:00,46.4,43.1,30.24,SSE,158,2.7,4.5,88,0.00,,,0.00,WUHU216HW,2013-04-09 12:56:00,
2013-04-09 06:01:00,46.4,43.1,30.24,SE,135,2.7,4.3,88,0.00,,,0.00,WUHU216HW,2013-04-09 13:01:00,
2013-04-09 06:06:00,46.4,43.1,30.25,SE,135,3.4,4.0,88,0.00,,,0.00,WUHU216HW,2013-04-09 13:06:00,
2013-04-09 06:11:00,46.4,43.5,30.24,SSE,158,4.0,4.7,89,0.00,,,0.00,WUHU216HW,2013-04-09 13:11:00,
2013-04-09 06:16:00,46.4,43.5,30.25,SE,135,4.3,4.7,89,0.00,,,0.00,WUHU216HW,2013-04-09 13:16:00,
2013-04-09 06:21:00,46.4,43.1,30.25,SE,135,4.0,5.1,88,0.00,,,0.00,WUHU216HW,2013-04-09 13:21:00,
2013-04-09 06:26:00,46.4,43.5,30.25,SSE,158,4.0,5.1,89,0.00,,,0.00,WUHU216HW,2013-04-09 13:26:00,
2013-04-09 06:31:00,46.4,43.5,30.25,SSE,158,4.3,4.9,89,0.00,,,0.00,WUHU216HW,2013-04-09 13:31:00,
2013-04-09 06:36:00,46.4,43.1,30.25,SSE,158,3.8,4.9,88,0.00,,,0.00,WUHU216HW,2013-04-09 13:36:00,
2013-04-09 06:41:00,46.4,43.5,30.25,South,180,4.0,4.7,89,0.00,,,0.00,WUHU216HW,2013-04-09 13:41:00,
2013-04-09 06:46:00,46.4,43.1,30.26,South,180,3.4,4.3,88,0.00,,,0.00,WUHU216HW,2013-04-09 13:46:00,
2013-04-09 06:52:00,46.4,43.1,30.26,SSE,158,4.0,4.3,88,0.00,,,0.00,WUHU216HW,2013-04-09 13:52:00,
2013-04-09 06:57:00,46.4,43.1,30.26,SSE,158,4.7,4.7,88,0.00,,,0.00,WUHU216HW,2013-04-09 13:57:00,
2013-04-09 07:02:00,46.4,43.1,30.25,SE,135,3.4,4.7,88,0.00,,,0.00,WUHU216HW,2013-04-09 14:02:00,
2013-04-09 07:07:00,46.4,43.1,30.25,SE,135,3.6,4.5,88,0.00,,,0.00,WUHU216HW,2013-04-09 14:07:00,
2013-04-09 07:12:00,46.4,43.1,30.25,SE,135,3.8,4.7,88,0.00,,,0.00,WUHU216HW,2013-04-09 14:12:00,
2013-04-09 07:17:00,46.4,43.1,30.25,SSE,158,3.6,4.7,88,0.00,,,0.00,WUHU216HW,2013-04-09 14:17:00,
2013-04-09 07:22:00,46.3,42.9,30.25,SE,135,3.4,4.7,88,0.00,,,0.00,WUHU216HW,2013-04-09 14:22:00,
2013-04-09 07:27:00,46.3,42.9,30.26,SE,135,3.1,4.0,88,0.00,,,0.00,WUHU216HW,2013-04-09 14:27:00,
2013-04-09 07:32:00,46.3,42.9,30.25,SE,135,2.9,4.7,88,0.00,,,0.00,WUHU216HW,2013-04-09 14:32:00,
2013-04-09 07:37:00,46.3,42.9,30.25,SSE,158,4.0,4.7,88,0.00,,,0.00,WUHU216HW,2013-04-09 14:37:00,
2013-04-09 07:42:00,46.3,42.7,30.25,SE,135,4.0,4.3,87,0.00,,,0.00,WUHU216HW,2013-04-09 14:42:00,
2013-04-09 07:47:00,46.3,42.7,30.25,SSE,158,3.8,4.3,87,0.00,,,0.00,WUHU216HW,2013-04-09 14:47:00,
2013-04-09 07:52:00,46.3,42.7,30.25,South,180,3.8,4.3,87,0.00,,,0.00,WUHU216HW,2013-04-09 14:52:00,
2013-04-09 07:57:00,46.3,42.7,30.26,SSE,158,3.4,3.8,87,0.00,,,0.00,WUHU216HW,2013-04-09 14:57:00,
2013-04-09 08:02:00,46.3,42.3,30.26,SSE,158,4.7,4.7,86,0.00,,,0.00,WUHU216HW,2013-04-09 15:02:00,
2013-04-09 08:07:00,46.3,42.7,30.25,SSE,158,3.4,4.7,87,0.00,,,0.00,WUHU216HW,2013-04-09 15:07:00,
2013-04-09 08:12:00,46.4,42.9,30.25,SSE,158,3.4,4.7,87,0.00,,,0.00,WUHU216HW,2013-04-09 15:12:00,
2013-04-09 08:17:00,46.4,42.5,30.25,SSE,158,4.0,5.4,86,0.00,,,0.00,WUHU216HW,2013-04-09 15:17:00,
2013-04-09 08:22:00,46.4,42.5,30.25,SE,135,4.7,5.4,86,0.00,,,0.00,WUHU216HW,2013-04-09 15:22:00,
2013-04-09 08:27:00,46.4,42.5,30.25,SE,135,4.3,5.4,86,0.00,,,0.00,WUHU216HW,2013-04-09 15:27:00,
2013-04-09 08:32:00,46.8,42.8,30.25,SE,135,4.3,5.1,86,0.00,,,0.00,WUHU216HW,2013-04-09 15:32:00,
2013-04-09 08:37:00,46.8,42.6,30.25,South,180,4.3,4.7,85,0.00,,,0.00,WUHU216HW,2013-04-09 15:37:00,
2013-04-09 08:42:00,47.0,42.8,30.26,SSE,158,3.4,4.7,85,0.00,,,0.00,WUHU216HW,2013-04-09 15:42:00,
2013-04-09 08:47:00,47.2,42.9,30.25,South,180,3.1,4.9,85,0.00,,,0.00,WUHU216HW,2013-04-09 15:47:00,
2013-04-09 08:52:00,47.2,42.9,30.25,SSE,158,2.9,4.9,85,0.00,,,0.00,WUHU216HW,2013-04-09 15:52:00,
2013-04-09 08:57:00,47.2,42.9,30.25,SE,135,3.8,4.3,85,0.00,,,0.00,WUHU216HW,2013-04-09 15:57:00,
2013-04-09 09:02:00,47.2,42.9,30.25,SSE,158,3.8,4.3,85,0.00,,,0.00,WUHU216HW,2013-04-09 16:02:00,
2013-04-09 09:07:00,47.3,43.0,30.25,SSE,158,4.0,4.3,85,0.00,,,0.00,WUHU216HW,2013-04-09 16:07:00,
2013-04-09 09:13:00,47.5,42.9,30.25,SSW,203,4.7,4.9,84,0.00,,,0.00,WUHU216HW,2013-04-09 16:13:00,
2013-04-09 09:18:00,47.5,42.9,30.25,SSE,158,4.3,4.9,84,0.00,,,0.00,WUHU216HW,2013-04-09 16:18:00,
2013-04-09 09:23:00,47.5,42.9,30.25,SSW,203,4.3,6.3,84,0.00,,,0.00,WUHU216HW,2013-04-09 16:23:00,
2013-04-09 09:28:00,47.7,43.1,30.26,SSW,203,4.0,6.3,84,0.00,,,0.00,WUHU216HW,2013-04-09 16:28:00,
2013-04-09 09:34:00,47.5,42.9,30.25,SSW,203,3.4,6.0,84,0.00,,,0.00,WUHU216HW,2013-04-09 16:34:00,
2013-04-09 09:39:00,47.7,43.1,30.26,SSW,203,5.1,5.1,84,0.00,,,0.00,WUHU216HW,2013-04-09 16:39:00,
2013-04-09 09:44:00,47.7,43.1,30.25,South,180,3.8,5.6,84,0.00,,,0.00,WUHU216HW,2013-04-09 16:44:00,
2013-04-09 09:49:00,47.7,43.1,30.25,SSW,203,4.5,5.6,84,0.00,,,0.00,WUHU216HW,2013-04-09 16:49:00,
2013-04-09 09:54:00,47.7,43.1,30.25,SSE,158,4.5,4.9,84,0.00,,,0.00,WUHU216HW,2013-04-09 16:54:00,
2013-04-09 10:00:00,47.7,42.8,30.25,SSE,158,4.3,4.9,83,0.00,,,0.00,WUHU216HW,2013-04-09 17:00:00,
2013-04-09 10:05:00,47.7,42.8,30.26,SSE,158,4.3,4.7,83,0.00,,,0.00,WUHU216HW,2013-04-09 17:05:00,
2013-04-09 10:10:00,47.7,42.8,30.26,SE,135,4.3,5.1,83,0.00,,,0.00,WUHU216HW,2013-04-09 17:10:00,
2013-04-09 10:15:00,47.7,42.5,30.26,SSE,158,4.0,5.4,82,0.00,,,0.00,WUHU216HW,2013-04-09 17:15:00,
2013-04-09 10:20:00,47.7,42.5,30.27,SE,135,4.3,5.4,82,0.00,,,0.00,WUHU216HW,2013-04-09 17:20:00,
2013-04-09 10:25:00,47.7,42.1,30.27,SSE,158,4.0,5.4,81,0.00,,,0.00,WUHU216HW,2013-04-09 17:25:00,
2013-04-09 10:30:00,47.7,42.1,30.27,SSE,158,4.7,5.4,81,0.00,,,0.00,WUHU216HW,2013-04-09 17:30:00,
2013-04-09 10:35:00,47.9,41.9,30.27,SSE,158,4.3,5.1,80,0.00,,,0.00,WUHU216HW,2013-04-09 17:35:00,
2013-04-09 10:40:00,47.9,42.3,30.27,SSE,158,3.8,5.1,81,0.00,,,0.00,WUHU216HW,2013-04-09 17:40:00,
2013-04-09 10:45:00,47.9,42.3,30.27,SSE,158,4.0,4.9,81,0.00,,,0.00,WUHU216HW,2013-04-09 17:45:00,
2013-04-09 10:50:00,48.1,42.5,30.28,SSE,158,4.0,4.9,81,0.00,,,0.00,WUHU216HW,2013-04-09 17:50:00,
2013-04-09 10:55:00,48.2,42.7,30.27,South,180,4.5,4.9,81,0.00,,,0.00,WUHU216HW,2013-04-09 17:55:00,
2013-04-09 11:00:00,48.4,43.1,30.28,SSE,158,4.5,4.5,82,0.00,,,0.00,WUHU216HW,2013-04-09 18:00:00,
2013-04-09 11:05:00,48.4,43.1,30.27,SSE,158,4.0,4.9,82,0.00,,,0.00,WUHU216HW,2013-04-09 18:05:00,
2013-04-09 11:10:00,48.6,43.0,30.27,SSE,158,3.8,4.9,81,0.00,,,0.00,WUHU216HW,2013-04-09 18:10:00,
2013-04-09 11:15:00,48.6,43.3,30.27,SSE,158,3.6,4.9,82,0.00,,,0.00,WUHU216HW,2013-04-09 18:15:00,
2013-04-09 11:21:00,49.0,43.7,30.27,SSW,203,3.6,4.9,82,0.00,,,0.00,WUHU216HW,2013-04-09 18:21:00,
2013-04-09 11:26:00,49.0,43.4,30.27,SSW,203,3.1,4.9,81,0.00,,,0.00,WUHU216HW,2013-04-09 18:26:00,
2013-04-09 11:31:00,49.0,43.4,30.27,SSW,203,4.3,5.4,81,0.00,,,0.00,WUHU216HW,2013-04-09 18:31:00,
2013-04-09 11:36:00,49.0,43.4,30.27,SSW,203,2.7,5.4,81,0.00,,,0.00,WUHU216HW,2013-04-09 18:36:00,
2013-04-09 11:41:00,49.0,43.4,30.27,SSW,203,2.7,4.7,81,0.00,,,0.00,WUHU216HW,2013-04-09 18:41:00,
2013-04-09 11:46:00,49.0,43.4,30.27,SSW,203,3.1,4.7,81,0.00,,,0.00,WUHU216HW,2013-04-09 18:46:00,
2013-04-09 11:51:00,49.1,43.8,30.27,SSW,203,5.6,5.6,82,0.00,,,0.00,WUHU216HW,2013-04-09 18:51:00,
2013-04-09 11:57:00,49.3,43.7,30.27,SSE,158,2.7,6.3,81,0.00,,,0.00,WUHU216HW,2013-04-09 18:57:00,
2013-04-09 12:02:00,49.3,43.4,30.27,SSW,203,4.7,6.0,80,0.00,,,0.00,WUHU216HW,2013-04-09 19:02:00,
2013-04-09 12:07:00,49.3,43.4,30.28,SSW,203,5.4,6.0,80,0.00,,,0.00,WUHU216HW,2013-04-09 19:07:00,
2013-04-09 12:12:00,49.3,43.7,30.27,SSW,203,3.8,5.4,81,0.00,,,0.00,WUHU216HW,2013-04-09 19:12:00,
2013-04-09 12:17:00,49.3,43.0,30.27,SSW,203,8.1,8.5,79,0.00,,,0.00,WUHU216HW,2013-04-09 19:17:00,
2013-04-09 12:22:00,49.5,42.8,30.27,SSW,203,5.1,8.5,78,0.00,,,0.00,WUHU216HW,2013-04-09 19:22:00,
2013-04-09 12:27:00,49.7,43.0,30.27,SSW,203,6.9,8.5,78,0.00,,,0.00,WUHU216HW,2013-04-09 19:27:00,
2013-04-09 12:33:00,49.7,42.8,30.26,SSW,203,7.6,9.4,77,0.00,,,0.00,WUHU216HW,2013-04-09 19:33:00,
2013-04-09 12:38:00,49.7,42.8,30.26,SSW,203,9.2,10.1,77,0.00,,,0.00,WUHU216HW,2013-04-09 19:38:00,
2013-04-09 12:43:00,49.9,42.9,30.26,SSW,203,7.2,10.1,77,0.00,,,0.00,WUHU216HW,2013-04-09 19:43:00,
2013-04-09 12:47:00,50.0,42.8,30.26,SSW,203,6.9,9.8,76,0.00,,,0.00,WUHU216HW,2013-04-09 19:47:00,
2013-04-09 12:52:00,50.0,42.4,30.25,SSW,203,7.2,7.8,75,0.00,,,0.00,WUHU216HW,2013-04-09 19:52:00,
2013-04-09 12:57:00,50.0,43.1,30.25,SSW,203,6.3,7.8,77,0.00,,,0.00,WUHU216HW,2013-04-09 19:57:00,
2013-04-09 13:03:00,50.2,43.3,30.25,South,180,3.8,6.9,77,0.00,,,0.00,WUHU216HW,2013-04-09 20:03:00,
2013-04-09 13:08:00,50.2,43.6,30.25,South,180,4.5,5.4,78,0.00,,,0.00,WUHU216HW,2013-04-09 20:08:00,
2013-04-09 13:13:00,50.4,43.5,30.25,SSE,158,6.3,6.3,77,0.00,,,0.00,WUHU216HW,2013-04-09 20:13:00,
2013-04-09 13:18:00,50.4,42.8,30.25,SSE,158,6.7,6.7,75,0.00,,,0.00,WUHU216HW,2013-04-09 20:18:00,
2013-04-09 13:23:00,50.4,42.8,30.25,SSE,158,6.3,6.7,75,0.00,,,0.00,WUHU216HW,2013-04-09 20:23:00,
2013-04-09 13:28:00,50.4,42.8,30.25,South,180,5.1,6.7,75,0.00,,,0.00,WUHU216HW,2013-04-09 20:28:00,
2013-04-09 13:33:00,50.6,42.0,30.25,SW,225,7.6,8.5,72,0.00,,,0.00,WUHU216HW,2013-04-09 20:33:00,
2013-04-09 13:38:00,50.8,42.4,30.25,SSW,203,5.4,8.5,73,0.00,,,0.00,WUHU216HW,2013-04-09 20:38:00,
2013-04-09 13:43:00,50.8,42.8,30.25,SSW,203,6.9,7.4,74,0.00,,,0.00,WUHU216HW,2013-04-09 20:43:00,
2013-04-09 13:49:00,50.4,42.8,30.25,SSW,203,6.5,9.8,75,0.00,,,0.00,WUHU216HW,2013-04-09 20:49:00,
2013-04-09 13:54:00,50.4,42.4,30.26,SSW,203,9.4,9.4,74,0.00,,,0.00,WUHU216HW,2013-04-09 20:54:00,
2013-04-09 13:59:00,50.4,42.0,30.25,SSW,203,6.7,9.4,73,0.00,,,0.00,WUHU216HW,2013-04-09 20:59:00,
2013-04-09 14:04:00,50.6,42.6,30.25,South,180,4.7,9.4,74,0.00,,,0.00,WUHU216HW,2013-04-09 21:04:00,
2013-04-09 14:10:00,50.6,41.2,30.25,SSE,158,4.9,6.9,70,0.00,,,0.00,WUHU216HW,2013-04-09 21:10:00,
2013-04-09 14:15:00,50.6,40.9,30.25,SSE,158,5.4,6.9,69,0.00,,,0.00,WUHU216HW,2013-04-09 21:15:00,
2013-04-09 14:20:00,50.8,42.1,30.25,SE,135,4.7,6.5,72,0.00,,,0.00,WUHU216HW,2013-04-09 21:20:00,
2013-04-09 14:25:00,50.8,42.8,30.25,SE,135,4.5,5.1,74,0.00,,,0.00,WUHU216HW,2013-04-09 21:25:00,
2013-04-09 14:30:00,50.6,42.9,30.25,SE,135,3.4,4.7,75,0.00,,,0.00,WUHU216HW,2013-04-09 21:30:00,
2013-04-09 14:35:00,50.6,43.7,30.25,SE,135,3.1,4.5,77,0.00,,,0.00,WUHU216HW,2013-04-09 21:35:00,
2013-04-09 14:40:00,50.6,43.3,30.25,SE,135,2.9,4.3,76,0.00,,,0.00,WUHU216HW,2013-04-09 21:40:00,
2013-04-09 14:45:00,50.8,43.8,30.25,SE,135,2.9,4.0,77,0.00,,,0.00,WUHU216HW,2013-04-09 21:45:00,
2013-04-09 14:50:00,50.8,44.1,30.24,SE,135,2.9,4.0,78,0.00,,,0.00,WUHU216HW,2013-04-09 21:50:00,
2013-04-09 14:55:00,50.8,44.1,30.24,ESE,113,2.9,4.0,78,0.00,,,0.00,WUHU216HW,2013-04-09 21:55:00,
2013-04-09 15:00:00,50.9,44.3,30.23,ESE,113,4.0,4.7,78,0.00,,,0.00,WUHU216HW,2013-04-09 22:00:00,
2013-04-09 15:05:00,50.9,44.3,30.23,SE,135,4.3,4.7,78,0.00,,,0.00,WUHU216HW,2013-04-09 22:05:00,
2013-04-09 15:10:00,50.9,44.3,30.23,ESE,113,3.4,4.7,78,0.00,,,0.00,WUHU216HW,2013-04-09 22:10:00,
2013-04-09 15:15:00,50.9,44.3,30.23,ESE,113,3.1,4.5,78,0.00,,,0.00,WUHU216HW,2013-04-09 22:15:00,
2013-04-09 15:20:00,50.9,44.3,30.22,ESE,113,4.5,4.5,78,0.00,,,0.00,WUHU216HW,2013-04-09 22:20:00,
2013-04-09 15:26:00,50.9,44.3,30.22,SE,135,3.6,4.7,78,0.00,,,0.00,WUHU216HW,2013-04-09 22:26:00,
2013-04-09 15:31:00,50.9,44.3,30.22,SE,135,2.9,4.7,78,0.00,,,0.00,WUHU216HW,2013-04-09 22:31:00,
2013-04-09 15:36:00,50.8,44.1,30.22,SE,135,3.1,4.0,78,0.00,,,0.00,WUHU216HW,2013-04-09 22:36:00,
2013-04-09 15:41:00,50.8,44.1,30.22,SE,135,3.1,3.8,78,0.00,,,0.00,WUHU216HW,2013-04-09 22:41:00,
2013-04-09 15:46:00,50.8,44.1,30.22,SSE,158,2.9,3.8,78,0.00,,,0.00,WUHU216HW,2013-04-09 22:46:00,
2013-04-09 15:51:00,50.8,44.1,30.22,SSE,158,2.2,3.6,78,0.00,,,0.00,WUHU216HW,2013-04-09 22:51:00,
2013-04-09 15:56:00,50.8,44.1,30.22,SSE,158,3.6,4.3,78,0.00,,,0.00,WUHU216HW,2013-04-09 22:56:00,
2013-04-09 16:02:00,50.9,43.3,30.22,South,180,3.1,4.9,75,0.00,,,0.00,WUHU216HW,2013-04-09 23:02:00,
2013-04-09 16:07:00,51.3,44.0,30.22,SSE,158,2.7,4.9,76,0.00,,,0.00,WUHU216HW,2013-04-09 23:07:00,
2013-04-09 16:12:00,51.3,44.4,30.22,SE,135,3.6,4.0,77,0.00,,,0.00,WUHU216HW,2013-04-09 23:12:00,
2013-04-09 16:17:00,51.5,44.6,30.22,SE,135,1.8,4.0,77,0.00,,,0.00,WUHU216HW,2013-04-09 23:17:00,
2013-04-09 16:22:00,51.3,44.0,30.22,SSE,158,2.5,3.4,76,0.00,,,0.00,WUHU216HW,2013-04-09 23:22:00,
2013-04-09 16:27:00,51.3,44.0,30.23,SSE,158,2.5,3.4,76,0.00,,,0.00,WUHU216HW,2013-04-09 23:27:00,
2013-04-09 16:32:00,51.3,43.7,30.22,SE,135,3.4,3.4,75,0.00,,,0.00,WUHU216HW,2013-04-09 23:32:00,
2013-04-09 16:37:00,51.3,43.7,30.22,SSE,158,3.1,3.6,75,0.00,,,0.00,WUHU216HW,2013-04-09 23:37:00,
2013-04-09 16:42:00,51.3,44.0,30.22,SE,135,1.3,3.6,76,0.00,,,0.00,WUHU216HW,2013-04-09 23:42:00,
2013-04-09 16:47:00,51.3,44.0,30.22,SSW,203,0.9,3.4,76,0.00,,,0.00,WUHU216HW,2013-04-09 23:47:00,
2013-04-09 16:52:00,51.3,44.0,30.22,SSW,203,3.1,3.1,76,0.00,,,0.00,WUHU216HW,2013-04-09 23:52:00,
2013-04-09 16:57:00,51.3,43.7,30.22,South,180,1.8,4.7,75,0.00,,,0.00,WUHU216HW,2013-04-09 23:57:00,
2013-04-09 17:02:00,51.5,43.8,30.22,SSW,203,2.9,4.7,75,0.00,,,0.00,WUHU216HW,2013-04-10 00:02:00,
2013-04-09 17:07:00,51.5,43.8,30.22,SSW,203,2.2,4.0,75,0.00,,,0.00,WUHU216HW,2013-04-10 00:07:00,
2013-04-09 17:12:00,51.5,43.5,30.22,SSW,203,1.8,3.4,74,0.00,,,0.00,WUHU216HW,2013-04-10 00:12:00,
2013-04-09 17:17:00,51.5,43.8,30.21,SSW,203,2.0,2.9,75,0.00,,,0.00,WUHU216HW,2013-04-10 00:17:00,
2013-04-09 17:22:00,51.5,43.5,30.21,South,180,1.8,2.2,74,0.00,,,0.00,WUHU216HW,2013-04-10 00:22:00,
2013-04-09 17:27:00,51.5,43.1,30.20,SSW,203,2.5,3.4,73,0.00,,,0.00,WUHU216HW,2013-04-10 00:27:00,
2013-04-09 17:32:00,51.5,43.5,30.20,SSW,203,1.8,3.4,74,0.00,,,0.00,WUHU216HW,2013-04-10 00:32:00,
2013-04-09 17:37:00,51.5,42.9,30.20,SSW,203,4.3,4.3,72,0.00,,,0.00,WUHU216HW,2013-04-10 00:37:00,
2013-04-09 17:42:00,51.5,43.1,30.20,SW,225,1.8,4.5,73,0.00,,,0.00,WUHU216HW,2013-04-10 00:42:00,
2013-04-09 17:47:00,51.5,42.9,30.20,SSW,203,2.9,4.5,72,0.00,,,0.00,WUHU216HW,2013-04-10 00:47:00,
2013-04-09 17:52:00,51.5,42.9,30.20,SW,225,1.8,3.1,72,0.00,,,0.00,WUHU216HW,2013-04-10 00:52:00,
2013-04-09 17:57:00,51.5,42.9,30.20,SSW,203,2.0,2.9,72,0.00,,,0.00,WUHU216HW,2013-04-10 00:57:00,
2013-04-09 18:02:00,51.5,43.1,30.20,SW,225,0.9,2.2,73,0.00,,,0.00,WUHU216HW,2013-04-10 01:02:00,
2013-04-09 18:07:00,51.5,43.5,30.19,SW,225,1.1,2.2,74,0.00,,,0.00,WUHU216HW,2013-04-10 01:07:00,
2013-04-09 18:12:00,51.5,43.1,30.19,SSW,203,1.8,2.2,73,0.00,,,0.00,WUHU216HW,2013-04-10 01:12:00,
2013-04-09 18:17:00,51.5,43.5,30.19,SE,135,0.0,2.2,74,0.00,,,0.00,WUHU216HW,2013-04-10 01:17:00,
2013-04-09 18:22:00,51.5,43.8,30.19,SE,135,1.8,1.8,75,0.00,,,0.00,WUHU216HW,2013-04-10 01:22:00,
2013-04-09 18:27:00,51.5,43.8,30.19,SSE,158,0.0,1.8,75,0.00,,,0.00,WUHU216HW,2013-04-10 01:27:00,
2013-04-09 18:32:00,51.5,43.8,30.19,South,180,0.7,1.8,75,0.00,,,0.00,WUHU216HW,2013-04-10 01:32:00,
2013-04-09 18:37:00,51.5,43.5,30.20,SW,225,1.8,2.5,74,0.00,,,0.00,WUHU216HW,2013-04-10 01:37:00,
2013-04-09 18:42:00,51.5,43.8,30.19,WSW,248,1.6,2.9,75,0.00,,,0.00,WUHU216HW,2013-04-10 01:42:00,
2013-04-09 18:48:00,51.3,43.7,30.18,ENE,68,2.0,3.4,75,0.00,,,0.00,WUHU216HW,2013-04-10 01:48:00,
2013-04-09 18:53:00,51.1,43.1,30.18,SE,135,1.8,3.4,74,0.00,,,0.00,WUHU216HW,2013-04-10 01:53:00,
2013-04-09 18:58:00,51.1,42.5,30.18,ENE,68,2.9,3.6,72,0.00,,,0.00,WUHU216HW,2013-04-10 01:58:00,
2013-04-09 19:03:00,51.3,42.9,30.17,ESE,113,2.5,3.6,73,0.00,,,0.00,WUHU216HW,2013-04-10 02:03:00,
2013-04-09 19:08:00,51.5,43.1,30.17,East,90,2.9,3.4,73,0.00,,,0.00,WUHU216HW,2013-04-10 02:08:00,
2013-04-09 19:13:00,51.3,43.3,30.17,ENE,68,3.1,3.4,74,0.00,,,0.00,WUHU216HW,2013-04-10 02:13:00,
2013-04-09 19:18:00,51.1,43.5,30.17,ENE,68,2.5,4.0,75,0.00,,,0.00,WUHU216HW,2013-04-10 02:18:00,
2013-04-09 19:23:00,50.9,43.3,30.16,ENE,68,2.9,4.0,75,0.00,,,0.00,WUHU216HW,2013-04-10 02:23:00,
2013-04-09 19:28:00,50.9,43.3,30.16,ENE,68,2.5,3.8,75,0.00,,,0.00,WUHU216HW,2013-04-10 02:28:00,
2013-04-09 19:33:00,50.9,43.3,30.17,NE,45,2.0,3.8,75,0.00,,,0.00,WUHU216HW,2013-04-10 02:33:00,
2013-04-09 19:38:00,50.8,43.8,30.17,East,90,1.8,3.8,77,0.00,,,0.00,WUHU216HW,2013-04-10 02:38:00,
2013-04-09 19:43:00,50.8,43.1,30.17,ENE,68,0.7,3.4,75,0.00,,,0.00,WUHU216HW,2013-04-10 02:43:00,
2013-04-09 19:48:00,50.8,42.8,30.17,South,180,1.8,2.7,74,0.00,,,0.00,WUHU216HW,2013-04-10 02:48:00,
2013-04-09 19:53:00,50.9,42.6,30.16,South,180,1.8,5.4,73,0.00,,,0.00,WUHU216HW,2013-04-10 02:53:00,
2013-04-09 19:58:00,51.1,42.8,30.15,ESE,113,2.7,5.4,73,0.00,,,0.00,WUHU216HW,2013-04-10 02:58:00,
2013-04-09 20:03:00,51.1,42.8,30.15,ESE,113,3.4,4.7,73,0.00,,,0.00,WUHU216HW,2013-04-10 03:03:00,
2013-04-09 20:08:00,51.1,41.3,30.16,SSW,203,6.7,8.1,69,0.00,,,0.00,WUHU216HW,2013-04-10 03:08:00,
2013-04-09 20:13:00,51.5,41.3,30.16,South,180,5.4,8.1,68,0.00,,,0.00,WUHU216HW,2013-04-10 03:13:00,
2013-04-09 20:18:00,51.7,41.0,30.16,SSE,158,7.2,8.1,67,0.00,,,0.00,WUHU216HW,2013-04-10 03:18:00,
2013-04-09 20:23:00,51.7,40.7,30.16,SSE,158,4.3,7.2,66,0.00,,,0.00,WUHU216HW,2013-04-10 03:23:00,
2013-04-09 20:28:00,51.7,40.7,30.15,SSE,158,6.3,7.2,66,0.00,,,0.00,WUHU216HW,2013-04-10 03:28:00,
2013-04-09 20:33:00,51.7,41.5,30.15,ESE,113,6.5,7.2,68,0.00,,,0.00,WUHU216HW,2013-04-10 03:33:00,
2013-04-09 20:38:00,51.5,41.3,30.15,ESE,113,6.7,6.7,68,0.00,,,0.00,WUHU216HW,2013-04-10 03:38:00,
2013-04-09 20:43:00,51.5,41.7,30.14,East,90,4.3,6.7,69,0.00,,,0.00,WUHU216HW,2013-04-10 03:43:00,
2013-04-09 20:48:00,51.5,41.7,30.14,ESE,113,4.7,6.7,69,0.00,,,0.00,WUHU216HW,2013-04-10 03:48:00,
2013-04-09 20:53:00,51.5,41.7,30.14,ESE,113,4.9,7.6,69,0.00,,,0.00,WUHU216HW,2013-04-10 03:53:00,
2013-04-09 20:58:00,51.5,41.3,30.15,ESE,113,6.9,8.7,68,0.00,,,0.00,WUHU216HW,2013-04-10 03:58:00,
2013-04-09 21:00:00,51.5,41.3,30.14,ESE,113,5.1,8.7,68,0.00,,,0.00,WUHU216HW,2013-04-10 04:00:00,
2013-04-09 21:05:00,51.5,41.7,30.14,SE,135,4.9,8.7,69,0.00,,,0.00,WUHU216HW,2013-04-10 04:05:00,
2013-04-09 21:10:00,51.5,42.1,30.14,ESE,113,5.1,7.6,70,0.00,,,0.00,WUHU216HW,2013-04-10 04:10:00,
2013-04-09 21:15:00,51.5,41.7,30.14,ESE,113,4.7,7.6,69,0.00,,,0.00,WUHU216HW,2013-04-10 04:15:00,
2013-04-09 21:20:00,51.5,41.7,30.14,SE,135,5.4,7.6,69,0.00,,,0.00,WUHU216HW,2013-04-10 04:20:00,
2013-04-09 21:25:00,51.5,41.7,30.14,SE,135,5.1,6.5,69,0.00,,,0.00,WUHU216HW,2013-04-10 04:25:00,
2013-04-09 21:30:00,51.5,42.1,30.14,ESE,113,3.6,6.3,70,0.00,,,0.00,WUHU216HW,2013-04-10 04:30:00,
2013-04-09 21:35:00,51.3,42.3,30.13,ESE,113,3.4,5.4,71,0.00,,,0.00,WUHU216HW,2013-04-10 04:35:00,
2013-04-09 21:40:00,51.1,42.5,30.14,ESE,113,4.0,4.7,72,0.00,,,0.00,WUHU216HW,2013-04-10 04:40:00,
2013-04-09 21:45:00,51.1,42.5,30.13,ESE,113,2.5,4.7,72,0.00,,,0.00,WUHU216HW,2013-04-10 04:45:00,
2013-04-09 21:50:00,50.9,42.6,30.13,ESE,113,3.1,4.0,73,0.00,,,0.00,WUHU216HW,2013-04-10 04:50:00,
2013-04-09 21:55:00,50.8,42.8,30.13,SE,135,3.4,4.0,74,0.00,,,0.00,WUHU216HW,2013-04-10 04:55:00,
2013-04-09 22:00:00,50.8,42.8,30.13,ESE,113,3.8,4.9,74,0.00,,,0.00,WUHU216HW,2013-04-10 05:00:00,
2013-04-09 22:05:00,50.8,42.4,30.12,SE,135,4.7,6.3,73,0.00,,,0.00,WUHU216HW,2013-04-10 05:05:00,
2013-04-09 22:10:00,50.8,42.4,30.12,ESE,113,3.4,6.3,73,0.00,,,0.00,WUHU216HW,2013-04-10 05:10:00,
2013-04-09 22:15:00,50.8,42.8,30.12,East,90,3.6,5.1,74,0.00,,,0.00,WUHU216HW,2013-04-10 05:15:00,
2013-04-09 22:20:00,50.8,42.8,30.11,ESE,113,4.0,5.1,74,0.00,,,0.00,WUHU216HW,2013-04-10 05:20:00,
2013-04-09 22:25:00,50.8,42.4,30.11,East,90,3.8,5.6,73,0.00,,,0.00,WUHU216HW,2013-04-10 05:25:00,
2013-04-09 22:30:00,50.8,42.4,30.11,East,90,3.8,5.6,73,0.00,,,0.00,WUHU216HW,2013-04-10 05:30:00,
2013-04-09 22:35:00,50.9,42.3,30.12,East,90,4.5,6.3,72,0.00,,,0.00,WUHU216HW,2013-04-10 05:35:00,
2013-04-09 22:40:00,51.1,41.8,30.11,ESE,113,4.9,6.3,70,0.00,,,0.00,WUHU216HW,2013-04-10 05:40:00,
2013-04-09 22:45:00,51.3,41.9,30.11,ENE,68,7.2,9.2,70,0.00,,,0.00,WUHU216HW,2013-04-10 05:45:00,
2013-04-09 22:50:00,51.5,41.7,30.11,ENE,68,6.7,9.2,69,0.00,,,0.00,WUHU216HW,2013-04-10 05:50:00,
2013-04-09 22:55:00,51.5,41.3,30.11,ESE,113,4.7,7.4,68,0.00,,,0.00,WUHU216HW,2013-04-10 05:55:00,
2013-04-09 23:00:00,51.7,41.5,30.11,East,90,6.9,7.4,68,0.00,,,0.00,WUHU216HW,2013-04-10 06:00:00,
2013-04-09 23:05:00,51.8,40.9,30.10,ENE,68,5.4,9.8,66,0.00,,,0.00,WUHU216HW,2013-04-10 06:05:00,
2013-04-09 23:10:00,52.0,41.0,30.10,East,90,5.4,10.1,66,0.00,,,0.00,WUHU216HW,2013-04-10 06:10:00,
2013-04-09 23:15:00,52.0,41.4,30.10,East,90,6.9,10.1,67,0.00,,,0.00,WUHU216HW,2013-04-10 06:15:00,
2013-04-09 23:21:00,52.0,41.9,30.09,ESE,113,8.5,9.8,68,0.00,,,0.00,WUHU216HW,2013-04-10 06:21:00,
2013-04-09 23:26:00,52.2,41.9,30.09,ENE,68,8.1,10.1,68,0.00,,,0.00,WUHU216HW,2013-04-10 06:26:00,
2013-04-09 23:31:00,52.2,41.6,30.08,ESE,113,6.3,11.0,67,0.00,,,0.00,WUHU216HW,2013-04-10 06:31:00,
2013-04-09 23:37:00,52.2,41.9,30.08,ESE,113,9.2,11.0,68,0.00,,,0.00,WUHU216HW,2013-04-10 06:37:00,
2013-04-09 23:42:00,52.2,41.9,30.07,ESE,113,9.2,10.3,68,0.00,,,0.00,WUHU216HW,2013-04-10 06:42:00,
2013-04-09 23:47:00,52.2,41.9,30.07,SE,135,8.1,10.3,68,0.00,,,0.00,WUHU216HW,2013-04-10 06:47:00,
2013-04-09 23:52:00,52.2,42.4,30.07,ESE,113,7.8,10.1,69,0.00,,,0.00,WUHU216HW,2013-04-10 06:52:00,
2013-04-09 23:57:00,52.0,42.7,30.07,ESE,113,6.7,9.4,70,0.00,,,0.00,WUHU216HW,2013-04-10 06:57:00,